Wind_Speed
25 25 24 24 23 23 24 23 23 22 18 17 17 17 16 12 8 9 12 17 20 20 17 16 18 21 23 24 26 28 30 31 30 28 26 22 21 22 24 27 28 26 25 28 28 25 24 24 20 21 32 40 37 31 30 34 40 40 36 40 45 42 37 31 27 30 32 26 26 36 40 36 34 37 40 37 32 31 25 14 14 17 14 13 9 2 5
25 25 24 23 22 22 23 22 23 22 19 17 16 15 15 13 10 13 16 18 20 21 20 17 16 16 15 17 19 20 23 27 28 28 27 23 22 23 25 26 27 26 24 27 26 22 23 24 20 13 14 26 34 35 33 32 38 43 39 39 41 37 36 35 23 16 22 24 24 31 39 39 36 36 39 36 29 28 28 21 16 14 14 16 11 6 10
25 25 24 23 22 21 22 21 22 22 19 17 16 15 14 14 12 18 22 21 21 22 21 18 15 14 15 18 18 18 20 22 23 24 25 24 23 25 28 26 27 29 29 28 26 24 21 20 22 19 12 11 17 28 35 35 37 40 37 37 38 37 37 37 26 13 11 11 14 26 37 37 34 35 37 37 33 29 27 23 18 15 16 18 15 15 21
25 25 24 23 22 21 21 20 20 22 20 16 15 15 14 14 14 20 25 25 24 23 22 21 19 17 19 21 21 21 23 22 20 20 22 23 22 24 26 25 28 32 30 27 25 23 18 14 16 19 18 16 12 14 21 26 31 38 39 39 39 38 39 39 34 31 29 23 21 29 38 38 36 34 35 35 36 35 32 24 21 19 18 19 20 20 28
25 24 24 23 22 21 20 20 19 20 21 17 14 15 14 13 14 17 22 25 26 26 26 24 23 21 20 22 22 21 23 24 22 20 20 20 21 24 25 24 28 29 24 23 25 23 18 15 15 14 12 15 17 16 13 12 19 31 41 44 42 38 37 39 38 39 41 37 28 25 33 40 40 37 36 34 33 35 35 27 21 19 18 18 20 23 29
25 24 24 23 22 21 20 20 19 19 20 18 15 16 15 14 14 15 18 21 22 26 28 26 26 25 22 23 23 21 20 22 23 21 20 19 19 25 27 23 23 25 23 26 30 26 19 17 17 14 9 8 12 18 19 14 14 22 30 36 42 41 36 36 38 37 38 38 32 25 29 38 42 41 38 35 34 36 37 32 26 22 19 19 21 24 27
24 24 24 23 22 22 21 20 19 18 19 20 18 16 15 16 15 15 17 20 20 23 26 27 26 25 21 20 20 18 17 18 19 19 19 20 20 22 25 23 16 16 20 24 25 24 20 17 14 10 9 12 11 11 16 14 12 15 19 22 30 39 39 35 36 37 37 38 34 27 25 29 37 43 39 32 28 28 30 33 33 30 28 26 25 28 30
24 23 23 23 22 21 21 20 19 18 18 19 20 17 16 17 17 15 17 19 20 21 23 25 25 22 18 15 15 14 14 15 15 14 14 18 18 15 18 22 18 14 16 18 18 18 17 15 12 8 10 15 10 6 8 11 8 7 9 12 15 26 34 36 36 36 36 38 37 33 28 23 26 34 32 24 18 17 19 22 27 30 29 26 26 30 31
23 23 23 23 22 21 21 21 20 18 17 18 19 19 17 17 18 17 17 16 17 20 23 23 22 21 18 15 13 11 12 14 18 20 16 14 15 12 12 16 19 17 16 13 10 11 12 15 17 16 17 20 15 5 4 11 12 9 4 5 6 14 21 29 34 33 31 35 36 30 22 17 18 23 24 20 18 17 16 11 9 13 16 19 24 31 30
24 24 23 23 22 21 21 21 20 19 18 17 18 19 18 18 18 18 18 16 14 17 22 21 19 19 19 16 11 8 9 11 15 22 22 16 13 13 12 13 17 14 10 5 1 6 14 18 18 18 19 22 21 11 6 9 14 15 12 5 4 7 13 22 30 26 23 28 33 27 15 8 8 11 14 15 14 14 13 9 5 6 9 11 15 21 25
24 24 24 23 23 22 21 21 20 20 19 17 18 19 18 18 19 19 19 17 13 14 18 18 17 18 19 16 11 5 5 6 9 15 22 21 16 13 11 11 11 8 4 3 3 3 15 21 18 15 16 19 22 18 13 11 13 17 17 12 10 10 8 20 30 26 19 23 29 25 14 5 7 9 4 3 6 8 8 7 5 7 10 11 8 8 16
25 25 25 24 24 23 22 21 20 20 19 18 18 19 19 19 18 19 19 18 15 13 14 15 16 18 19 17 12 5 3 7 8 11 18 21 18 16 12 11 9 3 2 3 6 7 13 22 22 18 15 18 21 21 18 16 16 20 19 13 11 10 4 12 24 24 20 22 23 16 7 6 11 11 6 4 3 3 5 6 3 3 7 10 6 3 8
25 25 25 25 25 24 23 22 21 20 20 18 18 19 20 19 19 19 19 18 16 15 14 14 15 17 19 20 18 11 6 9 10 9 14 18 18 16 14 14 13 7 6 7 7 8 9 15 19 19 18 19 22 22 20 19 20 23 21 15 11 8 3 2 8 13 16 20 18 9 7 9 9 7 4 2 3 5 10 14 13 9 4 2 2 3 7
25 25 25 25 25 24 24 23 22 21 20 19 18 19 20 20 19 18 18 18 16 13 14 15 15 15 16 19 22 19 12 10 12 10 10 14 17 17 16 17 17 13 11 12 9 6 6 7 10 15 18 20 21 20 20 21 21 21 19 13 10 8 3 1 3 5 9 14 15 11 10 9 7 6 5 3 2 2 7 14 15 11 9 7 8 12 14
25 25 25 25 25 24 23 23 22 22 21 19 18 19 20 20 19 18 18 18 15 13 14 14 13 13 14 15 21 23 17 13 14 12 10 11 15 17 18 18 18 16 12 10 8 5 6 6 6 11 14 14 12 13 14 17 19 17 14 11 9 8 7 4 1 3 6 11 13 9 7 7 9 10 6 3 3 3 0 9 15 11 9 9 10 13 16
25 25 25 25 25 24 23 22 22 21 21 20 18 19 20 20 20 19 18 18 18 16 14 14 12 12 13 13 16 20 20 16 14 12 12 15 15 15 17 16 14 14 13 7 2 2 4 5 5 7 10 10 8 8 7 8 11 11 10 14 15 11 8 6 3 4 5 6 8 6 4 8 11 11 8 4 4 4 5 3 10 9 8 10 10 9 9
25 25 25 24 24 24 23 21 21 21 21 20 19 19 21 20 19 19 18 20 21 17 13 13 13 12 13 12 10 12 15 16 16 13 11 14 15 12 12 11 10 13 14 10 4 1 3 5 5 6 9 9 8 7 4 4 7 7 7 14 16 13 10 8 5 6 5 4 8 7 6 9 10 9 9 8 6 2 5 2 8 10 11 13 12 11 11
25 25 25 24 24 25 23 22 21 20 20 20 19 19 20 20 20 21 20 21 22 18 13 13 14 14 14 12 9 9 8 9 12 12 9 10 12 9 4 4 6 9 12 10 6 5 6 7 6 8 8 8 9 8 6 6 7 5 5 9 10 8 8 8 8 8 8 5 5 7 8 9 7 3 3 4 3 1 1 7 13 15 17 18 17 17 17
25 25 24 24 24 24 23 22 21 20 20 20 19 19 20 21 21 21 20 21 23 18 11 12 15 15 15 15 13 11 8 6 9 11 8 7 11 10 4 1 4 4 7 8 7 8 10 10 7 6 7 7 8 7 6 9 10 7 5 5 5 5 5 4 6 7 9 9 6 5 6 4 1 4 5 5 3 3 8 15 18 17 19 21 22 22 22
23 23 24 24 23 24 23 22 21 20 20 20 19 18 20 22 22 21 20 21 22 16 10 12 15 13 12 14 14 14 13 9 10 12 9 7 10 11 10 8 8 5 4 8 7 8 12 12 7 4 5 6 6 6 8 10 11 11 11 7 4 5 6 6 6 7 6 7 6 4 2 3 7 7 6 7 5 2 4 8 13 18 20 21 22 22 21
21 21 22 22 22 23 22 21 20 20 20 20 19 18 20 22 22 22 21 19 19 16 12 13 15 13 11 11 12 13 14 12 13 15 16 13 12 11 10 13 14 9 4 5 7 8 9 7 4 1 1 1 3 7 9 12 12 10 11 10 7 7 8 8 8 6 5 6 7 5 3 3 10 10 4 5 2 6 4 8 10 13 16 17 19 20 19
18 18 19 19 19 20 20 19 19 20 20 20 19 18 19 21 21 21 20 18 17 15 12 12 13 12 11 10 11 12 13 13 15 18 21 20 17 14 12 13 15 13 8 4 3 5 5 3 1 2 5 6 5 4 6 8 12 13 12 12 11 10 9 9 11 10 8 7 9 10 8 6 11 11 6 6 10 13 11 11 13 14 16 18 20 19 19
14 15 15 14 15 16 17 17 18 19 19 19 18 18 18 20 21 20 17 16 15 13 11 12 13 11 10 10 10 11 11 13 15 17 20 22 20 18 16 14 15 15 12 8 5 4 3 2 1 2 5 6 7 5 2 6 10 10 9 10 12 12 11 10 11 12 12 12 13 14 13 12 14 14 12 12 15 17 16 15 15 15 16 19 22 22 21
12 12 11 11 12 14 15 15 16 17 18 18 17 17 17 19 19 18 16 15 14 11 9 10 11 12 12 13 13 12 11 13 14 14 18 24 23 18 15 14 15 16 14 11 10 9 6 4 1 2 2 4 6 5 3 6 9 10 11 13 16 15 12 9 10 13 15 16 17 18 17 16 17 18 18 17 17 18 18 18 18 17 15 15 17 20 24
11 10 10 10 11 13 13 13 14 15 16 16 15 15 17 18 18 16 16 15 13 11 9 8 10 14 16 15 15 13 12 13 14 14 17 22 22 16 13 12 15 17 15 14 14 12 10 8 5 3 1 4 6 5 4 7 7 9 12 15 16 15 12 10 12 14 15 16 18 17 17 16 17 19 20 22 23 23 23 24 23 18 12 11 13 16 22
10 10 9 9 10 12 13 13 13 14 14 14 13 14 16 17 17 16 17 15 13 12 10 9 11 13 13 12 12 11 10 12 14 15 17 19 18 14 13 12 15 17 18 18 17 14 11 10 7 6 5 3 5 5 3 4 5 7 10 11 11 13 13 13 13 15 16 18 19 18 16 18 18 18 18 19 20 22 24 26 26 19 9 5 8 12 16
12 11 10 9 9 10 12 12 12 12 12 12 12 13 15 16 17 17 17 15 13 11 10 10 12 10 9 10 11 10 9 11 13 14 15 16 16 14 13 13 15 17 19 19 18 16 13 10 6 6 7 4 5 5 2 1 5 7 8 9 8 9 11 12 14 15 15 16 18 17 16 17 17 15 15 16 17 21 24 24 24 20 11 4 4 4 7
12 12 11 10 9 8 10 11 12 11 12 11 12 13 14 15 16 17 16 14 13 11 7 9 13 12 8 8 9 10 11 11 12 13 13 13 13 13 12 11 13 16 18 18 16 17 16 11 7 6 6 5 4 5 4 5 7 6 7 8 7 5 5 7 10 12 12 14 17 17 17 16 16 16 18 18 17 21 24 24 22 19 14 9 5 4 6
11 12 12 11 10 8 8 10 11 11 11 12 12 13 14 14 14 15 15 14 14 13 9 9 12 14 10 6 4 6 9 10 10 11 11 11 11 10 9 9 11 13 15 16 16 16 16 12 9 8 9 6 5 6 8 8 6 5 7 8 6 4 4 6 7 8 10 13 16 17 16 16 16 17 20 20 19 20 21 21 20 17 15 15 15 12 13
10 11 12 12 10 8 8 9 10 11 11 12 12 12 12 12 13 14 14 13 13 11 9 8 11 13 11 5 2 4 9 10 9 10 11 10 8 6 5 7 9 11 13 16 17 16 15 14 11 11 13 10 5 5 8 10 8 6 6 4 2 3 6 9 9 9 12 14 15 16 16 16 16 16 16 17 17 16 17 18 17 17 19 19 17 15 16
9 10 11 11 9 7 7 8 9 10 10 11 11 10 10 11 13 13 13 13 12 10 8 9 12 12 9 4 2 3 7 9 8 8 10 9 6 5 4 5 7 8 11 15 17 17 18 17 13 13 15 13 9 10 14 15 13 11 8 5 4 6 9 11 12 13 15 17 18 19 19 18 17 15 13 15 16 15 16 16 15 15 16 17 16 15 17
10 10 10 11 9 7 6 6 7 8 9 9 9 9 10 11 12 12 12 12 11 10 9 10 12 11 7 4 4 6 9 9 8 9 10 9 6 5 5 5 6 8 11 15 17 19 20 17 13 14 17 14 11 13 14 12 12 12 11 10 9 10 11 13 15 17 18 19 20 20 19 18 17 16 15 16 17 17 16 15 14 14 15 16 16 17 18
9 10 10 10 9 7 5 5 5 6 8 9 10 10 11 10 9 10 11 10 10 9 9 10 12 11 7 5 5 7 10 10 10 11 11 11 10 9 8 7 7 7 10 13 15 16 18 17 14 15 17 15 12 13 14 12 11 12 13 13 13 13 14 15 18 20 20 19 19 18 17 16 16 17 18 19 18 17 18 18 17 18 19 19 20 22 23
9 10 10 10 9 6 5 4 5 6 7 9 9 9 9 8 9 10 11 11 11 9 8 11 13 10 7 6 6 9 10 10 10 12 12 12 13 14 11 9 9 8 8 12 14 14 15 16 14 14 17 17 13 11 13 14 13 14 15 14 13 13 13 14 15 16 16 16 16 16 16 16 16 17 17 18 18 19 19 20 21 22 23 24 25 26 27
8 9 10 10 8 6 5 4 5 6 6 7 7 7 7 7 9 10 11 11 11 9 9 12 13 10 7 6 8 10 10 8 7 10 11 10 10 13 13 12 10 9 9 13 16 16 16 16 15 13 13 13 12 13 16 16 16 18 18 15 11 10 10 9 11 12 13 14 15 15 16 16 16 16 17 17 18 20 21 24 26 26 26 25 24 24 24
8 9 10 10 8 6 6 6 6 6 6 6 6 6 7 8 8 9 10 11 11 10 10 12 13 11 10 9 10 10 8 6 5 8 9 6 6 10 14 13 10 9 10 13 15 16 17 17 15 12 10 8 8 11 13 14 16 19 17 13 9 8 7 7 8 10 11 12 14 15 16 17 16 17 18 20 20 21 22 24 25 25 24 23 22 21 21
9 9 11 10 9 8 9 9 9 8 7 7 6 6 6 7 8 9 10 11 11 11 11 13 14 14 11 10 10 8 6 5 7 9 8 6 7 10 10 9 8 9 11 13 16 17 16 14 12 11 10 9 9 8 7 9 14 17 16 13 11 9 7 6 7 8 9 11 13 15 17 19 20 21 22 22 22 22 22 22 22 22 22 21 21 21 21
10 11 12 11 11 11 11 11 11 9 8 7 7 6 6 7 8 8 9 10 11 10 11 12 14 13 10 9 9 8 6 7 10 11 9 8 10 10 8 6 7 9 11 14 18 18 15 13 14 17 18 16 15 13 12 12 14 14 13 12 10 9 7 7 8 9 11 13 15 17 19 20 21 21 21 21 20 20 20 20 20 21 21 22 22 21 21
12 13 14 13 13 13 12 11 11 10 9 9 9 8 8 8 8 8 8 9 9 10 12 13 12 10 10 10 9 8 6 6 8 11 11 10 10 9 8 8 9 10 11 15 18 16 15 17 20 22 22 20 18 16 14 12 11 9 7 5 4 5 7 8 9 10 11 13 14 15 16 18 18 18 18 18 18 18 19 19 20 20 21 22 22 22 22
14 15 15 14 13 12 11 12 12 10 10 10 11 11 11 10 9 8 8 9 9 10 12 13 11 10 11 10 8 7 7 6 6 8 10 10 11 10 9 10 11 10 12 15 15 13 16 20 22 22 20 17 14 13 11 8 7 5 6 7 9 10 11 11 11 11 11 12 12 13 14 16 16 18 18 19 20 20 20 21 22 22 23 24 24 24 25
16 17 15 13 12 12 12 12 12 11 10 10 11 12 12 10 10 10 10 9 8 8 11 12 9 8 8 7 5 5 6 6 7 8 9 11 12 10 9 11 12 11 12 15 13 12 16 21 21 20 17 13 11 10 8 7 8 9 11 12 12 11 12 12 12 13 14 15 15 16 16 17 18 20 21 22 23 23 23 24 25 25 26 26 26 26 27
17 16 14 12 12 13 12 11 11 11 10 9 10 12 12 11 12 11 10 9 8 9 11 10 8 5 6 6 4 3 6 8 8 8 8 10 12 10 10 12 12 11 12 14 12 13 18 20 19 17 15 12 8 7 6 6 8 10 11 11 11 12 13 14 15 16 17 18 19 19 19 20 21 22 23 24 25 25 25 25 25 25 26 26 26 27 27
15 14 13 12 13 13 12 12 12 11 10 10 11 12 12 12 12 11 10 10 10 9 9 7 5 3 5 5 2 1 5 9 10 8 7 10 12 10 11 12 13 12 12 11 11 14 19 19 16 12 13 11 8 6 4 4 6 8 10 11 12 14 16 17 18 19 21 22 24 24 24 24 24 24 24 24 24 23 23 23 23 23 23 23 23 23 24
13 12 13 13 14 13 12 12 11 10 11 13 14 12 11 10 10 10 10 9 8 7 6 6 5 5 5 4 1 1 4 9 11 8 7 10 11 9 10 13 14 12 11 12 14 17 19 16 11 10 9 8 7 6 5 6 8 10 12 14 16 17 19 20 22 23 24 25 25 25 25 25 24 23 22 21 21 20 19 19 20 20 19 20 20 21 23
11 12 13 14 14 13 12 12 12 13 14 15 14 13 11 8 7 7 7 5 5 6 6 5 6 6 5 2 1 1 5 9 11 8 7 9 10 9 10 12 11 10 10 14 17 18 15 13 11 10 8 7 6 6 7 8 10 12 14 15 17 19 20 21 22 22 23 22 22 22 22 22 22 20 18 17 18 17 16 16 17 17 17 18 18 19 20
12 13 13 13 14 14 14 14 14 14 13 13 14 13 11 9 7 7 6 5 6 8 8 6 6 6 3 2 3 5 8 11 11 9 8 10 11 11 11 11 8 8 11 15 17 15 12 10 9 7 5 5 5 6 8 9 11 13 14 16 18 18 19 19 19 19 19 19 19 18 18 17 17 15 14 14 15 15 15 15 15 15 15 15 15 15 16
12 13 14 14 15 15 15 14 13 12 12 12 13 10 7 6 5 6 7 7 6 7 7 6 6 5 4 7 10 11 12 12 11 9 10 11 11 11 11 9 6 7 11 14 14 11 9 7 4 1 3 5 7 9 10 11 12 13 14 15 15 15 14 14 15 15 16 15 14 14 13 13 13 12 11 11 12 13 13 13 14 14 14 14 14 14 15
12 13 13 14 14 13 13 12 11 11 12 11 10 8 4 3 2 3 6 7 5 5 5 5 5 5 5 8 11 12 11 9 9 10 11 11 10 9 8 7 8 9 11 11 10 7 5 3 2 5 7 9 10 11 11 12 12 11 11 12 11 11 11 12 12 13 14 13 12 11 10 10 10 10 10 10 11 12 12 12 12 13 14 14 14 14 14
13 13 13 13 12 11 11 10 10 12 13 10 9 8 5 2 1 1 3 3 3 5 6 4 4 6 8 9 10 9 8 7 8 10 11 9 8 8 8 9 11 11 9 7 6 4 2 2 5 7 9 10 11 10 10 9 8 8 8 9 9 9 10 10 11 12 13 13 12 11 11 10 10 10 10 10 10 11 11 12 12 12 14 14 14 13 12
13 13 14 13 12 10 10 9 11 14 13 9 8 9 8 5 4 3 2 2 2 4 6 6 8 10 11 12 11 10 10 10 10 10 9 8 7 7 9 11 12 10 7 5 3 3 4 6 8 10 11 11 10 8 7 6 6 6 7 8 8 9 9 10 11 12 12 12 12 12 12 12 12 12 11 11 10 10 10 10 10 11 13 13 13 12 11
12 13 14 13 11 10 9 10 11 13 12 10 9 9 8 7 6 6 6 8 10 11 10 9 10 11 12 13 12 11 10 11 10 8 7 7 6 5 8 10 9 6 3 1 2 4 7 8 10 10 10 9 7 5 4 4 5 6 6 8 9 9 10 10 11 11 12 12 12 12 12 13 13 13 13 13 12 12 11 10 9 9 10 11 10 9 8
12 12 12 12 11 10 10 9 10 12 12 10 9 9 8 6 5 7 12 15 15 15 15 13 12 12 12 13 12 10 9 8 6 4 7 8 7 5 6 6 4 2 2 4 5 7 8 9 9 8 7 7 6 5 4 5 5 5 6 7 8 9 10 10 10 10 11 12 12 12 12 12 12 12 12 11 11 10 10 9 8 8 9 9 9 9 8
Wind_Direction
289 288 287 288 288 290 290 290 289 286 282 281 280 277 273 264 238 226 220 213 213 210 211 229 245 247 248 251 253 254 254 254 255 255 255 255 258 262 263 259 258 260 266 276 282 280 278 277 268 245 228 223 225 225 218 218 219 218 216 215 217 222 227 231 238 244 246 247 243 237 234 230 223 219 219 221 227 221 213 219 218 211 213 200 178 142 159
287 285 285 285 286 287 288 289 289 286 283 282 280 272 266 259 223 195 199 205 210 212 209 215 238 253 262 264 261 260 258 256 257 257 255 256 260 264 265 259 254 257 269 277 277 279 278 269 269 276 243 227 227 227 225 222 218 217 218 218 216 218 224 224 225 241 246 249 250 234 224 222 221 219 217 222 226 217 214 223 225 224 220 196 174 160 160
285 284 283 282 282 284 285 286 287 285 284 284 284 275 262 257 225 192 195 204 207 212 213 215 231 253 267 271 268 267 266 262 263 266 263 259 258 263 264 259 256 260 270 278 281 285 284 271 266 271 268 251 233 226 227 226 222 222 223 222 219 218 222 220 214 214 223 233 230 213 209 212 218 220 218 220 223 217 219 223 215 216 220 208 196 167 155
284 283 282 280 280 280 280 282 282 282 282 281 282 279 266 258 237 203 198 207 210 211 214 217 226 240 255 259 257 259 264 266 265 269 272 268 264 266 264 257 259 264 267 276 284 281 276 280 288 281 270 268 258 232 227 224 224 226 225 223 220 219 224 224 220 223 227 232 227 210 207 209 214 220 219 218 223 227 229 224 209 208 211 217 218 186 164
283 283 283 280 278 277 276 277 277 278 280 278 276 276 267 259 252 223 204 206 212 214 216 220 225 232 247 256 255 256 264 270 263 252 255 265 269 271 272 268 264 261 265 280 283 273 266 279 307 318 297 269 262 256 243 226 229 229 224 223 220 217 222 226 227 229 232 236 236 218 211 211 212 217 220 219 224 229 229 226 220 213 205 208 210 193 181
283 283 283 281 279 277 273 272 272 273 276 276 273 274 269 260 256 241 220 214 214 213 216 223 227 230 243 255 258 263 274 281 275 257 245 255 269 270 267 267 263 257 264 281 282 274 270 283 307 324 325 307 286 265 250 238 237 232 225 223 220 217 221 225 227 230 231 234 238 234 222 215 214 217 218 218 221 224 226 230 231 228 230 231 216 203 202
283 282 282 281 280 277 274 269 267 268 272 272 270 271 272 266 256 247 237 233 228 218 214 221 228 230 240 253 257 269 286 290 283 273 264 268 280 277 262 255 259 263 265 271 277 279 275 285 312 321 299 308 318 286 260 244 230 229 225 222 221 220 221 224 227 230 230 229 232 234 225 213 212 213 215 220 224 225 230 232 231 234 243 248 235 222 222
281 280 280 281 279 277 275 269 264 264 267 270 270 268 268 267 262 253 245 241 241 232 221 224 231 229 233 252 258 263 281 287 274 265 269 275 281 283 266 255 255 269 273 269 273 277 268 271 294 307 289 290 305 333 285 249 234 242 221 203 217 225 223 223 226 227 226 227 230 233 231 222 212 207 210 222 230 238 251 244 233 233 239 244 239 228 226
276 277 277 278 278 277 275 271 265 261 261 266 271 269 267 268 266 261 252 243 242 239 232 234 239 232 230 249 264 266 281 285 263 247 247 262 269 275 279 263 253 263 285 287 269 259 256 263 273 275 278 280 283 325 315 252 259 296 296 168 210 241 228 219 219 220 219 222 226 225 220 218 214 210 218 232 231 234 254 257 231 225 232 236 228 221 226
272 273 273 273 274 275 274 272 268 261 258 260 264 266 267 270 271 270 266 257 246 241 236 235 240 239 236 244 263 289 318 313 277 254 243 238 247 262 271 263 255 267 302 336 150 230 251 259 261 259 264 272 272 273 285 271 267 279 298 338 354 290 250 219 210 206 200 206 212 209 196 191 203 208 225 235 224 219 231 236 228 224 228 233 227 226 235
270 270 271 270 270 271 271 271 269 264 259 258 259 260 261 265 268 270 271 267 256 248 243 236 235 237 235 236 243 269 324 318 290 265 251 243 247 264 261 242 247 276 330 32 46 267 244 245 251 253 252 260 264 264 269 275 263 262 278 312 348 342 283 221 209 203 192 191 198 202 201 170 121 120 135 201 195 196 208 216 244 258 247 247 252 244 239
270 269 269 268 267 266 266 267 267 265 262 259 260 259 256 258 262 263 267 266 257 255 254 243 235 232 228 229 231 236 282 266 256 260 256 250 253 264 254 219 218 266 314 276 326 318 249 239 248 257 254 255 260 264 269 271 263 259 264 285 324 342 323 208 204 199 189 186 191 199 196 141 120 111 86 50 78 110 95 90 71 330 271 258 256 212 215
271 269 268 268 267 265 263 263 263 263 262 260 262 261 256 255 258 260 263 262 255 254 256 245 231 228 230 229 226 225 244 244 234 243 253 246 245 254 252 229 222 248 289 283 306 321 275 250 251 257 262 262 259 261 269 273 270 264 259 265 292 311 342 153 179 172 169 177 183 176 135 127 115 112 124 91 82 96 89 88 86 73 57 280 262 186 206
271 270 269 268 267 266 263 262 260 260 260 258 260 262 259 256 258 260 261 260 255 253 252 240 223 221 231 233 227 228 241 244 235 238 248 244 240 245 247 235 226 236 269 283 285 290 293 280 263 262 267 269 266 266 272 276 274 268 258 259 278 278 265 46 112 132 137 147 147 129 124 120 78 73 117 124 104 119 100 100 102 97 100 117 133 147 163
269 269 269 268 268 267 264 263 260 257 256 255 256 258 258 257 257 258 261 260 254 245 244 238 221 214 223 226 222 226 238 253 253 247 241 239 241 245 243 232 224 229 248 272 279 283 302 300 277 271 274 275 277 279 281 284 283 274 255 249 267 266 239 234 217 124 114 113 113 112 119 101 69 73 97 136 186 229 223 110 118 126 133 137 143 148 151
267 267 267 266 266 266 264 263 260 256 253 251 251 253 255 256 256 256 258 258 252 244 243 244 230 214 214 212 212 220 230 245 258 254 238 232 234 240 241 232 228 234 234 237 265 334 324 297 263 259 267 271 279 284 286 293 296 284 243 233 250 255 225 214 205 165 146 110 101 106 109 93 83 81 88 112 160 222 258 147 121 136 171 179 188 198 191
266 265 265 264 265 264 263 262 260 257 252 247 246 249 251 254 256 254 253 254 252 245 239 241 235 220 216 209 198 211 223 234 249 259 251 237 228 228 238 237 235 238 233 223 218 283 314 297 266 247 253 254 257 268 276 279 289 286 218 214 235 238 212 205 203 173 162 121 103 107 116 116 105 89 88 101 110 176 255 211 126 146 173 178 188 206 211
263 263 263 262 262 262 261 260 258 256 252 245 242 245 248 250 251 251 250 251 252 247 237 237 236 228 227 222 205 205 210 215 235 253 264 247 229 224 247 244 220 237 244 238 243 277 297 297 277 260 260 248 234 242 251 239 250 268 228 214 225 220 199 211 221 204 198 190 126 96 101 122 136 140 122 120 95 45 166 136 131 149 167 172 182 188 183
261 261 261 260 259 259 258 258 256 254 251 245 239 239 244 246 247 248 248 248 251 252 248 250 248 238 236 237 230 231 236 223 229 243 260 265 248 243 271 287 190 217 251 246 254 281 283 287 290 275 271 260 235 227 218 209 212 229 245 228 206 181 172 194 198 179 182 192 175 125 99 93 236 250 254 266 287 74 114 131 136 150 166 172 176 176 174
259 260 259 258 257 257 256 254 252 250 248 244 238 235 239 243 246 248 248 248 250 250 243 247 253 250 245 245 245 246 251 252 248 245 252 286 284 270 269 258 231 220 231 226 226 243 253 265 282 273 275 282 247 197 147 152 182 218 241 244 207 176 173 169 155 140 148 165 166 158 130 342 302 283 303 308 291 124 132 159 154 154 163 171 176 178 179
258 258 258 256 255 255 255 252 249 247 246 243 237 232 235 241 245 247 248 250 252 250 241 241 248 250 248 251 254 254 252 253 256 253 252 270 294 295 273 252 247 257 258 209 196 202 218 242 271 221 130 13 209 184 149 129 136 174 208 216 205 190 182 173 164 160 158 140 125 131 149 272 269 264 318 17 111 149 185 223 202 181 177 178 179 181 183
257 257 256 255 254 254 254 250 246 243 242 241 236 231 232 237 242 246 249 252 253 251 245 241 243 244 246 254 261 263 261 257 256 255 252 257 275 287 270 242 240 253 262 242 197 183 184 200 252 128 112 90 92 136 163 148 134 137 156 175 184 184 182 185 188 191 187 158 143 150 160 196 233 231 198 150 158 159 167 187 194 195 197 196 194 188 181
258 256 253 252 254 254 252 249 243 239 238 238 234 230 231 235 239 243 248 253 255 254 246 241 240 237 236 241 246 254 260 258 255 254 248 246 257 273 268 243 229 233 241 244 234 211 190 197 303 99 112 87 55 49 117 151 145 144 153 166 167 162 163 175 183 181 173 165 166 174 183 202 224 227 213 193 179 173 177 186 189 191 196 204 214 217 208
251 248 246 249 254 254 251 247 241 237 235 235 233 229 229 234 238 240 243 250 254 253 245 237 231 226 225 227 229 229 236 243 246 248 242 237 243 263 272 254 233 228 233 237 234 235 238 232 269 360 97 93 53 34 79 117 130 143 147 145 144 149 163 180 177 167 161 155 163 179 191 205 222 231 230 224 212 201 200 200 197 196 197 204 220 232 228
242 241 240 243 249 254 254 247 240 236 234 232 230 226 227 232 235 236 239 244 246 244 236 217 212 219 222 224 226 224 225 234 239 238 234 231 236 254 273 260 236 227 228 229 230 238 249 245 250 296 268 116 76 48 76 102 117 142 151 150 147 150 165 177 170 168 167 159 164 181 194 200 208 216 220 222 220 214 209 207 208 214 229 236 236 240 238
234 237 236 237 243 251 254 248 240 236 232 227 223 222 224 229 232 232 235 237 237 239 231 206 204 219 223 223 232 235 234 242 243 238 234 229 230 247 266 257 234 223 222 224 226 232 244 250 254 268 258 168 98 63 54 89 115 143 157 160 159 160 166 167 161 161 165 167 173 185 194 195 197 204 209 217 226 229 227 226 223 219 220 242 247 250 253
231 231 233 235 239 246 252 249 240 233 227 220 216 217 221 226 228 229 230 230 232 240 236 211 204 212 213 216 226 227 223 231 236 236 233 228 228 243 258 250 233 225 221 221 223 224 230 241 246 250 250 213 119 85 34 117 135 148 158 156 158 170 176 178 179 177 175 178 185 193 198 198 201 212 219 226 240 244 241 236 228 219 218 260 299 272 259
233 229 230 234 237 243 250 248 238 230 224 217 213 215 220 225 227 229 229 228 229 237 237 212 202 200 197 204 217 222 220 221 222 223 223 220 225 242 256 245 232 227 223 220 220 220 223 229 225 209 216 219 183 158 164 154 140 147 161 152 146 161 175 185 197 198 191 187 189 195 206 212 216 222 222 221 225 230 232 235 239 243 252 259 241 232 263
232 228 228 230 232 241 248 244 235 227 221 217 215 217 221 224 227 228 227 226 228 232 231 214 202 197 189 179 193 218 218 210 205 207 206 208 222 241 253 239 225 222 218 213 213 216 215 212 207 191 180 185 194 181 181 185 174 159 156 147 134 135 157 172 191 194 182 180 186 194 203 208 211 216 218 219 222 226 228 233 240 242 236 225 221 237 261
229 226 226 224 225 235 243 239 230 222 218 216 215 217 220 222 225 226 225 224 227 231 227 213 200 195 193 200 248 231 204 188 180 185 192 201 217 235 241 227 216 211 206 201 201 204 198 188 185 178 167 163 163 154 166 181 181 155 143 148 160 177 175 176 188 197 188 182 188 197 200 202 208 214 215 217 221 223 223 227 232 233 231 232 235 241 246
227 223 220 217 216 224 235 232 224 218 216 215 215 215 217 218 219 220 222 222 223 226 221 206 196 193 195 209 235 188 175 165 156 165 180 191 203 209 206 205 198 190 189 192 193 190 185 182 177 167 162 163 154 137 146 160 160 144 136 152 178 183 182 180 184 194 195 192 195 200 201 202 206 207 207 213 219 220 222 227 232 235 237 236 233 230 234
224 218 213 208 204 211 225 225 218 215 210 205 205 206 209 212 215 216 215 214 215 220 218 201 191 190 188 179 152 135 135 136 137 146 158 162 163 163 164 174 179 174 177 185 189 186 182 179 169 163 170 174 157 140 143 153 153 148 153 169 177 175 177 178 178 181 186 191 192 193 193 196 200 203 210 220 225 228 232 236 238 240 243 244 245 247 254
219 210 202 195 192 199 213 213 210 208 201 197 200 205 207 207 207 208 209 209 209 211 209 197 190 186 181 174 151 122 118 122 122 126 137 141 134 126 127 137 151 161 170 177 181 183 183 178 164 161 175 180 166 146 142 142 148 159 167 176 180 178 175 175 175 174 178 184 187 189 193 199 207 214 221 228 234 240 247 252 255 256 258 261 265 269 273
208 197 190 186 186 188 194 197 197 194 192 194 200 207 210 205 195 193 197 202 203 203 200 192 187 179 168 163 145 119 112 115 113 113 119 124 121 114 108 110 120 129 146 158 161 165 172 175 171 171 182 192 193 171 149 144 158 176 181 184 192 195 190 183 178 177 181 188 194 200 209 216 222 228 233 238 243 250 256 262 266 270 272 274 275 276 276
194 183 178 178 179 177 173 177 179 179 183 188 191 201 209 203 192 190 192 195 197 197 190 184 180 169 154 150 144 126 110 101 108 119 117 114 117 117 109 102 103 110 127 141 143 140 142 150 156 159 169 184 194 185 175 173 179 184 186 189 195 198 199 199 198 198 202 207 213 221 231 238 245 250 256 261 264 266 268 270 271 273 274 274 274 273 271
170 167 168 168 168 164 159 160 159 157 165 173 177 190 201 194 187 189 191 190 191 190 185 180 173 159 140 128 131 132 120 103 119 130 123 119 134 130 118 105 99 109 125 135 137 135 132 134 137 133 129 138 160 175 186 190 184 180 184 189 188 188 199 216 221 221 225 231 239 247 252 257 262 266 269 273 274 274 274 274 273 272 272 270 269 269 269
148 152 157 158 158 154 151 153 154 152 156 163 165 172 182 181 182 186 186 185 186 186 184 179 169 155 136 118 119 128 128 129 139 134 122 126 140 135 123 110 103 115 127 130 132 133 127 120 122 124 118 119 130 140 149 156 157 160 162 160 160 168 181 196 210 222 231 238 245 251 255 258 262 266 268 269 270 269 271 273 274 275 274 273 271 271 271
140 146 149 151 154 153 151 152 152 148 147 145 141 146 160 168 171 173 176 180 183 181 179 177 167 149 125 114 122 126 121 133 148 148 143 145 147 145 142 132 120 123 126 127 131 131 118 106 117 124 119 118 125 128 131 140 146 145 143 143 151 166 181 197 215 229 239 246 251 257 261 263 266 268 269 270 271 272 273 275 277 279 280 280 280 279 277
141 146 148 149 149 149 149 147 142 139 139 134 127 129 140 146 149 153 162 173 178 173 168 168 158 133 115 119 129 129 120 129 151 158 156 151 148 153 157 148 137 135 136 136 136 129 113 114 126 125 117 117 124 127 132 145 151 146 146 160 195 230 245 258 268 270 270 269 269 270 271 272 272 273 275 277 278 279 279 280 280 281 282 283 283 283 282
145 145 144 144 144 144 143 141 139 138 135 129 123 123 128 130 131 138 149 158 161 162 163 159 142 118 117 124 125 123 122 122 139 160 163 154 145 144 147 145 141 139 142 144 140 124 119 128 132 124 114 118 130 133 139 159 180 200 229 247 259 271 281 292 297 294 291 291 292 292 290 287 284 283 282 282 282 282 282 281 281 280 280 280 281 281 281
144 143 141 139 139 138 136 138 139 134 128 126 126 126 124 125 127 130 136 139 139 147 155 148 125 114 129 131 110 113 132 134 137 148 152 148 142 137 135 139 138 134 138 140 136 131 135 135 127 118 117 127 141 148 160 188 213 231 245 253 261 276 292 299 298 294 292 294 296 295 293 291 290 290 288 287 286 285 282 280 278 278 277 277 278 278 279
140 142 141 134 129 129 131 132 132 128 123 123 125 124 122 122 120 118 120 121 120 134 146 135 104 108 149 145 109 123 158 160 157 152 146 143 140 132 128 133 132 126 129 132 132 141 142 129 113 115 132 142 146 154 168 192 212 227 244 257 270 284 293 295 295 295 295 295 298 299 297 296 295 294 292 291 290 289 288 286 285 284 283 282 281 280 279
135 137 136 127 121 121 121 121 123 125 123 121 120 119 119 116 106 99 106 113 114 124 141 133 104 127 173 163 123 134 173 171 170 166 154 151 147 132 117 120 121 119 125 131 136 142 137 122 110 127 150 154 156 169 194 228 242 256 273 283 291 297 300 300 302 303 303 303 304 304 302 300 298 295 293 292 290 289 290 292 294 294 293 292 290 288 285
132 131 128 123 118 115 113 115 119 119 115 114 110 102 100 101 94 89 96 108 114 123 138 141 142 165 188 191 152 94 159 170 172 168 155 153 150 130 109 112 118 118 119 126 133 135 130 123 129 153 167 167 174 194 226 253 267 280 290 296 300 304 305 304 305 305 305 306 305 303 302 300 298 296 294 292 290 289 291 294 297 298 298 298 297 294 291
122 120 121 120 117 112 107 107 108 104 101 95 81 68 69 81 83 79 82 99 134 148 152 159 168 173 185 207 208 134 149 163 169 170 157 147 140 123 111 115 122 122 118 121 127 130 128 134 153 172 185 194 207 231 255 267 279 290 296 300 303 304 304 305 307 308 308 309 307 305 304 301 299 298 294 288 286 288 291 293 295 297 298 299 298 295 293
119 122 121 116 109 102 97 95 93 89 84 72 55 53 69 83 78 77 92 122 162 171 172 178 182 178 163 136 144 144 143 147 153 153 140 128 123 122 123 121 115 109 113 119 123 124 124 138 160 179 197 218 248 278 289 290 295 299 300 303 306 307 308 311 315 317 320 320 319 317 316 312 308 304 297 289 286 289 290 292 294 297 301 302 302 300 299
121 123 117 107 100 93 88 83 75 69 70 67 54 52 81 105 97 103 122 134 156 176 178 173 174 170 136 119 126 131 133 138 142 137 124 117 118 127 132 123 100 96 109 118 123 124 123 132 154 210 300 302 306 312 314 312 312 311 311 311 311 312 315 321 324 328 333 335 333 332 331 328 324 320 311 301 297 296 296 298 300 302 306 309 308 305 305
115 116 109 104 100 91 80 73 72 79 87 80 58 50 83 139 131 112 123 130 150 177 180 177 186 186 156 127 124 127 127 126 128 130 127 120 118 121 123 108 96 102 112 120 126 127 120 106 14 339 332 327 324 323 321 320 321 319 316 314 315 317 322 328 333 340 347 352 353 349 343 339 334 328 321 313 309 307 308 309 308 306 308 310 309 306 306
108 108 102 98 98 91 79 78 93 104 104 89 66 65 88 130 267 98 120 135 167 180 173 151 138 152 152 136 124 120 116 109 119 135 140 129 112 106 108 105 103 105 110 117 118 109 73 1 345 340 336 334 333 330 324 323 326 325 321 323 325 326 329 336 346 354 360 5 9 9 6 360 352 342 331 323 318 314 312 312 312 312 312 312 310 308 309
105 103 102 101 101 98 92 97 111 113 108 98 87 84 81 66 50 68 96 97 111 149 160 138 112 120 132 127 113 103 96 90 96 114 127 118 99 97 106 111 114 118 123 122 104 50 355 338 335 334 333 333 333 331 328 328 331 334 339 343 340 334 335 343 351 357 2 7 12 15 15 12 9 6 3 357 350 340 330 326 325 325 323 320 316 313 311
104 100 101 103 102 99 93 95 103 105 99 92 89 84 66 42 42 71 105 116 117 126 140 137 119 114 116 111 104 104 99 87 81 89 101 98 94 104 111 113 116 122 117 74 1 342 337 333 329 329 330 330 325 318 316 323 329 339 353 356 346 335 334 341 347 354 360 4 6 9 9 6 5 8 13 14 11 6 2 360 358 353 349 346 344 339 331
92 89 95 103 107 107 97 88 96 110 113 105 94 83 67 42 53 103 123 129 128 128 130 126 117 110 108 104 105 110 105 86 73 89 102 97 95 108 115 110 103 77 5 334 321 321 327 327 325 324 323 318 309 302 308 318 324 332 348 353 344 334 333 338 346 356 3 5 4 4 3 358 355 357 2 5 5 4 5 5 3 359 358 2 7 8 4
Height
3083 3082 3082 3081 3080 3079 3078 3077 3077 3077 3077 3077 3076 3076 3076 3077 3078 3078 3077 3077 3077 3076 3076 3078 3079 3079 3081 3082 3083 3084 3084 3083 3085 3086 3088 3090 3090 3091 3090 3090 3091 3092 3091 3091 3091 3093 3090 3088 3088 3088 3086 3086 3087 3090 3093 3094 3096 3098 3099 3101 3105 3108 3109 3109 3110 3111 3110 3110 3112 3113 3114 3116 3116 3117 3120 3122 3124 3124 3125 3126 3127 3127 3128 3128 3129 3131 3130
3080 3079 3078 3078 3077 3077 3076 3075 3074 3073 3074 3074 3073 3073 3074 3074 3076 3076 3075 3074 3074 3074 3074 3076 3077 3078 3080 3081 3080 3081 3081 3081 3082 3083 3084 3086 3087 3087 3086 3087 3088 3088 3089 3089 3089 3091 3089 3085 3085 3085 3084 3084 3085 3087 3089 3090 3092 3093 3094 3096 3100 3102 3103 3105 3108 3109 3108 3108 3107 3107 3109 3111 3111 3113 3116 3119 3121 3123 3123 3125 3125 3125 3126 3126 3127 3129 3129
3077 3076 3075 3075 3075 3074 3073 3072 3071 3070 3071 3071 3071 3070 3071 3071 3072 3073 3072 3071 3071 3072 3074 3075 3076 3077 3078 3078 3077 3078 3078 3078 3079 3080 3081 3082 3084 3084 3083 3083 3085 3085 3085 3085 3085 3086 3086 3084 3083 3083 3083 3083 3084 3085 3087 3087 3088 3088 3090 3092 3095 3097 3098 3099 3102 3103 3104 3104 3103 3101 3104 3107 3109 3110 3113 3116 3118 3119 3120 3121 3122 3122 3124 3124 3124 3125 3127
3073 3073 3072 3072 3072 3071 3071 3070 3069 3068 3068 3069 3069 3068 3068 3068 3068 3069 3070 3070 3070 3071 3072 3073 3073 3075 3075 3074 3074 3075 3074 3075 3077 3078 3078 3079 3080 3080 3079 3080 3081 3081 3082 3083 3082 3082 3082 3082 3081 3079 3079 3080 3081 3083 3084 3085 3086 3086 3087 3089 3091 3093 3094 3095 3097 3098 3099 3100 3100 3101 3103 3105 3106 3107 3110 3112 3114 3116 3117 3117 3117 3118 3120 3121 3121 3122 3125
3070 3070 3069 3069 3069 3068 3068 3068 3067 3066 3066 3067 3067 3066 3066 3066 3066 3066 3068 3068 3068 3069 3070 3070 3070 3072 3072 3071 3071 3072 3072 3072 3073 3074 3074 3075 3077 3077 3076 3078 3078 3078 3079 3081 3080 3079 3079 3079 3078 3077 3076 3076 3078 3080 3081 3083 3083 3083 3084 3086 3088 3089 3090 3092 3094 3095 3096 3098 3099 3101 3101 3102 3103 3105 3107 3109 3111 3112 3112 3113 3114 3117 3118 3118 3119 3121 3122
3067 3067 3066 3066 3066 3066 3065 3065 3065 3064 3063 3064 3064 3063 3063 3064 3063 3064 3065 3065 3065 3066 3068 3068 3068 3070 3070 3070 3070 3071 3071 3070 3071 3071 3072 3072 3074 3074 3074 3075 3077 3077 3078 3079 3077 3076 3076 3076 3076 3074 3073 3073 3075 3076 3078 3080 3081 3080 3082 3084 3084 3085 3086 3088 3091 3092 3094 3096 3097 3099 3100 3099 3101 3103 3104 3105 3107 3107 3108 3109 3112 3114 3115 3115 3117 3118 3118
3064 3064 3063 3063 3063 3063 3063 3063 3063 3062 3061 3061 3061 3061 3061 3061 3061 3061 3062 3061 3062 3063 3065 3065 3065 3067 3069 3068 3069 3069 3068 3068 3068 3069 3069 3069 3071 3072 3072 3072 3074 3074 3074 3075 3074 3072 3073 3074 3073 3073 3072 3073 3073 3073 3074 3077 3078 3078 3079 3081 3082 3083 3083 3085 3087 3089 3090 3092 3094 3096 3098 3097 3098 3100 3101 3103 3104 3105 3106 3107 3109 3110 3112 3113 3114 3114 3114
3061 3060 3060 3060 3060 3059 3059 3060 3060 3060 3059 3058 3058 3058 3059 3058 3058 3058 3059 3059 3059 3061 3062 3062 3062 3065 3067 3066 3066 3066 3065 3064 3064 3065 3066 3066 3067 3069 3069 3068 3069 3070 3071 3072 3071 3070 3071 3071 3071 3072 3073 3073 3073 3073 3072 3074 3075 3076 3076 3078 3079 3079 3079 3082 3084 3085 3086 3088 3091 3093 3095 3096 3097 3098 3100 3101 3102 3103 3104 3104 3105 3106 3108 3110 3110 3110 3111
3057 3057 3057 3056 3056 3056 3056 3056 3057 3057 3057 3056 3055 3055 3056 3055 3055 3055 3055 3056 3057 3058 3059 3059 3060 3062 3064 3063 3062 3062 3062 3061 3061 3060 3062 3064 3064 3064 3064 3064 3066 3068 3069 3069 3068 3068 3069 3069 3069 3071 3072 3072 3073 3073 3072 3072 3073 3073 3073 3074 3076 3077 3077 3079 3080 3080 3082 3085 3088 3090 3092 3094 3095 3096 3098 3099 3099 3101 3102 3102 3102 3103 3105 3107 3107 3107 3109
3053 3053 3053 3053 3053 3053 3053 3053 3053 3054 3054 3054 3053 3053 3053 3053 3052 3052 3052 3053 3055 3055 3055 3057 3058 3058 3059 3060 3060 3060 3059 3059 3058 3056 3057 3059 3061 3061 3061 3062 3063 3065 3067 3065 3064 3065 3067 3068 3068 3070 3071 3071 3071 3072 3072 3072 3072 3072 3072 3072 3073 3073 3074 3075 3076 3077 3079 3082 3085 3087 3089 3091 3092 3093 3095 3095 3095 3097 3099 3099 3100 3101 3103 3104 3105 3105 3107
3050 3049 3049 3049 3049 3050 3050 3050 3050 3051 3051 3051 3051 3050 3051 3051 3050 3050 3050 3050 3052 3052 3052 3054 3054 3054 3056 3057 3057 3057 3056 3056 3055 3053 3053 3055 3057 3056 3057 3058 3060 3062 3063 3063 3062 3062 3064 3066 3067 3068 3068 3068 3068 3069 3070 3071 3071 3072 3072 3071 3071 3070 3071 3073 3074 3075 3076 3079 3081 3083 3086 3088 3090 3091 3092 3093 3092 3093 3095 3096 3098 3099 3100 3101 3102 3104 3106
3046 3046 3046 3046 3046 3046 3046 3047 3047 3047 3048 3048 3048 3047 3048 3048 3048 3048 3048 3048 3049 3049 3050 3050 3050 3051 3052 3053 3053 3053 3053 3052 3052 3051 3051 3052 3052 3052 3052 3053 3055 3058 3060 3060 3060 3060 3062 3064 3065 3065 3066 3066 3065 3065 3067 3068 3069 3070 3071 3071 3071 3070 3070 3071 3072 3072 3073 3076 3078 3081 3084 3086 3087 3089 3091 3092 3092 3092 3093 3094 3096 3097 3098 3098 3099 3102 3104
3042 3042 3042 3042 3042 3042 3043 3043 3044 3044 3044 3045 3045 3044 3045 3045 3045 3045 3045 3045 3046 3047 3047 3047 3047 3047 3048 3049 3050 3050 3049 3049 3049 3049 3049 3048 3049 3050 3051 3051 3053 3055 3057 3058 3059 3059 3060 3061 3061 3062 3063 3063 3062 3063 3064 3064 3066 3067 3069 3070 3070 3070 3070 3070 3071 3070 3071 3072 3075 3078 3082 3084 3086 3087 3088 3091 3092 3092 3093 3094 3096 3097 3097 3097 3098 3100 3102
3038 3038 3038 3038 3038 3039 3039 3040 3040 3041 3041 3042 3042 3042 3042 3042 3042 3043 3043 3043 3044 3044 3044 3044 3044 3045 3045 3046 3046 3047 3047 3047 3047 3047 3047 3047 3047 3048 3049 3050 3051 3053 3054 3055 3056 3057 3057 3058 3059 3060 3061 3061 3061 3061 3061 3061 3063 3065 3067 3068 3069 3069 3069 3070 3071 3071 3070 3069 3072 3076 3080 3083 3085 3085 3086 3089 3092 3092 3093 3094 3097 3099 3100 3100 3099 3100 3102
3034 3034 3034 3035 3035 3035 3035 3036 3036 3037 3038 3039 3040 3039 3039 3039 3040 3040 3040 3040 3041 3041 3041 3041 3042 3043 3043 3043 3043 3044 3045 3046 3046 3046 3047 3046 3046 3047 3048 3048 3048 3048 3050 3052 3053 3054 3055 3056 3058 3059 3059 3060 3060 3060 3060 3060 3060 3062 3065 3066 3067 3067 3068 3070 3071 3071 3071 3070 3072 3075 3079 3083 3085 3085 3086 3088 3090 3091 3092 3094 3097 3100 3101 3102 3102 3102 3103
3030 3030 3030 3031 3031 3031 3032 3032 3033 3033 3034 3036 3036 3036 3036 3036 3037 3037 3038 3038 3038 3038 3039 3040 3041 3041 3041 3041 3041 3042 3043 3044 3045 3046 3046 3045 3045 3046 3046 3046 3046 3046 3047 3049 3051 3052 3054 3055 3056 3057 3058 3059 3059 3059 3060 3060 3059 3060 3063 3065 3065 3066 3067 3068 3070 3071 3071 3071 3072 3075 3079 3083 3085 3086 3087 3088 3089 3090 3092 3094 3097 3100 3101 3103 3103 3104 3104
3026 3026 3026 3027 3027 3028 3028 3029 3029 3030 3031 3032 3033 3033 3033 3034 3034 3034 3035 3035 3034 3036 3038 3038 3039 3040 3040 3040 3040 3040 3041 3042 3044 3045 3045 3044 3044 3045 3045 3045 3046 3045 3047 3049 3050 3051 3052 3054 3055 3055 3056 3057 3058 3058 3059 3059 3059 3060 3062 3063 3064 3065 3066 3067 3068 3070 3071 3072 3073 3075 3078 3081 3083 3084 3086 3087 3088 3089 3091 3094 3097 3099 3101 3102 3103 3104 3105
3022 3022 3022 3023 3023 3024 3025 3026 3026 3027 3027 3029 3030 3030 3030 3031 3031 3031 3032 3032 3032 3034 3036 3037 3037 3038 3038 3038 3039 3039 3039 3041 3043 3044 3044 3044 3043 3044 3044 3045 3045 3045 3046 3048 3049 3050 3051 3053 3054 3054 3055 3056 3056 3057 3057 3059 3060 3061 3062 3062 3064 3065 3065 3066 3067 3069 3070 3071 3072 3074 3077 3079 3081 3082 3083 3085 3087 3089 3091 3094 3096 3098 3100 3101 3102 3102 3103
3018 3018 3019 3019 3019 3020 3021 3022 3023 3024 3024 3025 3027 3027 3027 3028 3028 3028 3029 3029 3029 3032 3035 3035 3035 3036 3037 3037 3038 3038 3038 3039 3041 3042 3044 3044 3043 3043 3044 3045 3044 3044 3045 3047 3048 3049 3051 3052 3053 3054 3054 3055 3056 3056 3056 3057 3059 3061 3062 3062 3063 3063 3063 3065 3067 3068 3069 3071 3072 3073 3076 3078 3079 3080 3081 3084 3087 3089 3091 3094 3097 3098 3099 3100 3100 3101 3102
3014 3014 3015 3015 3016 3016 3017 3018 3019 3020 3021 3022 3024 3025 3024 3024 3025 3026 3027 3027 3028 3030 3033 3033 3033 3034 3035 3036 3037 3037 3038 3039 3039 3040 3042 3043 3044 3044 3045 3046 3046 3046 3046 3047 3049 3050 3053 3054 3053 3053 3053 3054 3055 3055 3056 3056 3058 3060 3061 3061 3061 3061 3062 3064 3066 3067 3068 3069 3070 3072 3075 3075 3075 3077 3080 3083 3086 3089 3092 3094 3097 3098 3099 3099 3099 3100 3101
3010 3011 3011 3012 3012 3013 3014 3015 3016 3017 3018 3019 3020 3021 3022 3022 3023 3023 3024 3025 3026 3028 3030 3030 3030 3032 3033 3034 3035 3036 3036 3038 3038 3039 3040 3042 3043 3045 3047 3047 3047 3047 3048 3049 3050 3052 3053 3054 3053 3052 3053 3053 3054 3055 3055 3055 3056 3058 3059 3060 3061 3062 3063 3064 3065 3066 3067 3067 3069 3071 3073 3072 3072 3075 3079 3083 3087 3090 3092 3094 3096 3097 3098 3099 3099 3099 3100
3007 3007 3008 3009 3009 3010 3011 3012 3013 3014 3015 3016 3017 3018 3019 3020 3020 3021 3022 3023 3024 3025 3027 3028 3029 3030 3031 3032 3033 3034 3034 3035 3036 3037 3039 3041 3043 3044 3046 3047 3048 3048 3048 3049 3049 3050 3051 3052 3051 3051 3052 3052 3053 3054 3054 3054 3054 3056 3058 3059 3061 3063 3065 3066 3066 3066 3067 3067 3069 3071 3073 3073 3073 3076 3080 3083 3086 3088 3091 3093 3094 3096 3096 3097 3097 3098 3099
3004 3005 3005 3006 3007 3007 3008 3009 3010 3011 3012 3013 3014 3016 3017 3017 3018 3019 3021 3021 3022 3023 3025 3026 3027 3028 3029 3030 3031 3031 3032 3033 3034 3035 3038 3040 3041 3042 3044 3046 3047 3048 3047 3048 3048 3049 3049 3050 3050 3050 3050 3050 3051 3052 3053 3052 3053 3054 3056 3058 3060 3063 3065 3066 3066 3066 3067 3069 3070 3071 3073 3075 3077 3079 3080 3082 3084 3086 3088 3090 3092 3094 3094 3095 3094 3095 3097
3002 3003 3003 3004 3005 3005 3006 3006 3007 3008 3009 3010 3012 3014 3015 3015 3016 3018 3019 3020 3020 3022 3023 3024 3025 3026 3026 3027 3028 3029 3029 3031 3032 3034 3036 3038 3039 3040 3042 3044 3045 3046 3046 3046 3047 3048 3048 3049 3049 3050 3049 3049 3050 3051 3051 3051 3052 3053 3055 3057 3059 3062 3063 3064 3064 3065 3066 3068 3070 3071 3073 3075 3077 3079 3080 3082 3085 3086 3087 3088 3090 3090 3091 3092 3093 3093 3094
3000 3001 3001 3002 3003 3003 3004 3005 3005 3006 3007 3008 3010 3012 3013 3013 3014 3016 3017 3018 3019 3020 3021 3022 3022 3023 3024 3025 3026 3027 3028 3029 3030 3032 3033 3035 3037 3039 3041 3042 3042 3043 3044 3045 3045 3046 3047 3048 3049 3049 3049 3049 3049 3050 3051 3052 3053 3054 3055 3057 3058 3060 3061 3062 3062 3063 3065 3067 3069 3070 3072 3074 3076 3078 3080 3082 3083 3085 3086 3087 3087 3088 3089 3091 3092 3092 3091
2998 2999 3000 3000 3001 3002 3002 3003 3004 3004 3005 3007 3008 3010 3011 3011 3012 3014 3015 3016 3018 3019 3019 3020 3020 3021 3023 3025 3026 3027 3028 3028 3029 3030 3031 3033 3035 3037 3039 3039 3039 3041 3042 3042 3044 3045 3046 3047 3048 3049 3049 3049 3049 3050 3051 3053 3054 3054 3055 3056 3058 3059 3060 3060 3061 3062 3064 3066 3068 3070 3072 3074 3077 3079 3080 3082 3083 3084 3085 3085 3085 3087 3090 3091 3090 3089 3089
2997 2997 2998 2999 2999 3000 3001 3002 3002 3003 3004 3006 3007 3008 3009 3010 3011 3012 3013 3015 3016 3017 3018 3019 3020 3021 3022 3024 3024 3025 3026 3026 3028 3029 3030 3031 3033 3036 3037 3036 3037 3038 3039 3040 3042 3044 3045 3047 3048 3048 3049 3049 3050 3051 3052 3053 3054 3054 3054 3054 3056 3057 3058 3059 3060 3061 3063 3065 3067 3070 3072 3074 3077 3079 3080 3082 3084 3085 3085 3085 3085 3087 3089 3089 3088 3088 3090
2995 2996 2997 2997 2998 2999 2999 3000 3001 3002 3003 3004 3006 3006 3007 3008 3009 3010 3012 3014 3015 3016 3017 3018 3019 3020 3021 3022 3023 3023 3024 3024 3026 3027 3028 3030 3032 3034 3034 3034 3035 3035 3037 3039 3041 3042 3044 3047 3048 3048 3049 3049 3050 3052 3053 3054 3054 3054 3053 3053 3054 3056 3057 3059 3060 3062 3064 3065 3066 3069 3072 3075 3077 3078 3079 3080 3083 3084 3084 3084 3086 3087 3089 3090 3090 3090 3090
2993 2994 2995 2996 2996 2997 2998 2999 3000 3001 3002 3003 3004 3005 3006 3007 3008 3009 3011 3013 3014 3015 3016 3017 3018 3019 3021 3021 3022 3022 3023 3023 3024 3026 3027 3029 3031 3032 3032 3032 3033 3033 3035 3037 3039 3040 3043 3046 3047 3048 3049 3049 3050 3051 3052 3054 3055 3054 3053 3054 3055 3057 3058 3059 3061 3062 3064 3065 3066 3068 3071 3073 3074 3074 3076 3077 3079 3081 3083 3083 3084 3085 3087 3087 3088 3089 3089
2991 2992 2993 2994 2995 2996 2997 2998 2999 3000 3001 3002 3003 3004 3005 3006 3007 3008 3010 3011 3013 3014 3015 3016 3017 3019 3020 3021 3021 3022 3022 3022 3023 3024 3026 3028 3029 3030 3031 3031 3031 3032 3033 3035 3037 3039 3042 3044 3046 3047 3048 3049 3051 3051 3051 3052 3054 3054 3054 3055 3057 3058 3059 3060 3061 3063 3064 3064 3066 3068 3070 3071 3072 3072 3074 3075 3077 3079 3081 3081 3082 3083 3083 3084 3085 3087 3087
2990 2991 2992 2993 2994 2995 2996 2997 2998 2999 3000 3001 3002 3003 3004 3005 3006 3007 3009 3010 3012 3013 3014 3016 3017 3018 3019 3020 3020 3021 3021 3021 3022 3023 3025 3027 3028 3029 3029 3030 3030 3031 3032 3033 3035 3038 3040 3042 3044 3047 3048 3050 3051 3051 3052 3052 3053 3054 3055 3056 3057 3058 3059 3060 3062 3062 3063 3064 3065 3066 3068 3070 3071 3072 3074 3075 3076 3077 3078 3079 3079 3080 3081 3082 3083 3085 3085
2988 2989 2990 2992 2993 2994 2995 2996 2997 2998 2999 3000 3001 3002 3003 3004 3005 3006 3008 3010 3011 3013 3014 3015 3016 3018 3019 3019 3019 3019 3020 3021 3022 3023 3025 3026 3028 3028 3029 3029 3030 3030 3031 3032 3034 3036 3039 3041 3044 3046 3048 3049 3050 3052 3053 3054 3054 3055 3057 3058 3058 3058 3059 3060 3061 3062 3063 3064 3065 3065 3067 3069 3071 3072 3073 3074 3074 3075 3076 3077 3078 3079 3079 3080 3081 3082 3082
2987 2988 2990 2991 2993 2994 2995 2996 2997 2998 2998 3000 3000 3001 3002 3003 3005 3006 3008 3009 3011 3012 3013 3014 3016 3017 3018 3019 3019 3019 3019 3021 3022 3023 3025 3026 3027 3028 3028 3029 3029 3030 3031 3032 3034 3036 3038 3041 3043 3045 3047 3049 3050 3052 3053 3054 3055 3056 3057 3057 3058 3058 3059 3060 3061 3062 3063 3065 3066 3067 3068 3070 3070 3071 3072 3073 3073 3074 3074 3075 3075 3076 3077 3077 3078 3078 3078
2986 2988 2989 2991 2992 2994 2995 2996 2996 2997 2998 2999 3000 3001 3002 3003 3004 3005 3007 3008 3010 3011 3013 3014 3015 3016 3017 3018 3019 3020 3020 3021 3023 3023 3025 3026 3027 3027 3028 3029 3030 3030 3031 3032 3034 3036 3038 3040 3043 3045 3047 3048 3050 3052 3053 3054 3054 3055 3055 3055 3056 3058 3060 3061 3063 3064 3065 3066 3068 3068 3069 3069 3070 3070 3071 3072 3072 3072 3072 3072 3072 3073 3073 3073 3073 3073 3073
2986 2988 2989 2991 2992 2993 2994 2995 2996 2997 2998 2999 3000 3001 3002 3003 3004 3005 3006 3008 3009 3011 3012 3013 3015 3016 3017 3018 3019 3019 3020 3022 3023 3024 3025 3026 3027 3028 3029 3030 3030 3031 3032 3033 3035 3036 3038 3040 3042 3045 3046 3048 3049 3050 3052 3053 3053 3054 3055 3056 3057 3059 3061 3063 3065 3066 3067 3067 3068 3068 3068 3068 3069 3069 3069 3069 3069 3069 3069 3069 3069 3069 3069 3069 3069 3068 3068
2986 2988 2989 2991 2992 2993 2994 2995 2996 2997 2997 2998 2999 3000 3001 3002 3004 3005 3006 3008 3009 3010 3012 3013 3015 3016 3017 3018 3018 3019 3020 3022 3023 3024 3025 3026 3028 3028 3029 3030 3031 3032 3033 3034 3036 3038 3039 3041 3043 3045 3046 3047 3048 3049 3050 3051 3053 3055 3056 3058 3059 3060 3062 3063 3064 3066 3066 3067 3067 3067 3066 3066 3066 3066 3066 3066 3066 3066 3065 3065 3065 3065 3065 3065 3065 3064 3064
2987 2988 2989 2991 2992 2993 2994 2995 2995 2996 2997 2998 2998 3000 3001 3002 3003 3005 3006 3008 3009 3010 3011 3013 3014 3016 3017 3018 3018 3019 3020 3021 3022 3024 3025 3026 3028 3029 3029 3030 3032 3033 3034 3035 3037 3039 3040 3042 3043 3044 3046 3047 3048 3049 3051 3052 3054 3056 3057 3058 3059 3060 3061 3062 3063 3064 3065 3065 3065 3065 3064 3064 3064 3063 3063 3063 3063 3062 3062 3061 3061 3061 3061 3061 3061 3061 3060
2987 2988 2989 2991 2992 2993 2994 2994 2995 2996 2997 2998 2999 3000 3001 3002 3004 3005 3006 3008 3009 3010 3012 3013 3013 3015 3017 3018 3018 3019 3020 3021 3022 3023 3025 3026 3028 3029 3030 3031 3032 3034 3035 3036 3038 3039 3042 3043 3043 3043 3045 3047 3049 3050 3052 3053 3054 3056 3057 3058 3059 3060 3061 3062 3062 3063 3063 3062 3062 3062 3062 3061 3061 3061 3060 3060 3059 3059 3059 3058 3058 3057 3057 3057 3057 3057 3057
2987 2988 2990 2991 2992 2993 2994 2995 2996 2997 2998 2999 2999 3000 3002 3003 3004 3006 3007 3008 3009 3011 3012 3013 3014 3015 3017 3018 3019 3019 3020 3022 3023 3024 3025 3026 3027 3029 3030 3031 3033 3034 3036 3037 3038 3040 3042 3043 3043 3043 3045 3047 3048 3049 3051 3052 3053 3055 3056 3057 3058 3059 3060 3060 3061 3060 3060 3060 3060 3059 3059 3058 3058 3057 3057 3056 3056 3056 3055 3055 3055 3054 3053 3053 3053 3053 3053
2988 2989 2990 2992 2993 2994 2995 2996 2997 2998 2999 3000 3001 3002 3003 3004 3005 3006 3008 3009 3010 3012 3013 3014 3015 3016 3017 3018 3019 3020 3021 3022 3023 3024 3025 3026 3027 3029 3030 3031 3033 3034 3036 3037 3039 3040 3040 3041 3042 3043 3045 3047 3048 3049 3051 3052 3053 3054 3055 3056 3057 3058 3058 3058 3058 3058 3058 3057 3057 3057 3057 3056 3055 3055 3054 3053 3053 3053 3052 3052 3051 3050 3050 3049 3049 3049 3048
2989 2990 2992 2993 2994 2996 2997 2998 2998 3000 3001 3002 3002 3003 3004 3005 3006 3007 3009 3010 3011 3013 3014 3015 3016 3017 3018 3018 3019 3020 3021 3023 3024 3025 3026 3027 3028 3029 3030 3031 3033 3035 3036 3038 3039 3040 3040 3041 3042 3044 3046 3048 3049 3050 3051 3053 3053 3054 3055 3055 3056 3056 3057 3056 3056 3056 3055 3055 3055 3054 3054 3053 3053 3052 3051 3050 3049 3049 3048 3048 3047 3046 3046 3045 3045 3044 3043
2990 2992 2993 2995 2996 2997 2998 2999 3000 3001 3002 3003 3004 3005 3006 3007 3008 3009 3010 3011 3012 3014 3015 3017 3018 3018 3019 3019 3020 3021 3022 3023 3024 3025 3026 3027 3028 3029 3031 3032 3033 3035 3036 3038 3039 3039 3039 3041 3043 3045 3047 3049 3049 3050 3052 3053 3054 3054 3054 3054 3055 3055 3055 3054 3054 3054 3053 3052 3052 3051 3051 3050 3049 3048 3047 3046 3045 3044 3043 3042 3042 3041 3041 3040 3040 3039 3038
2992 2994 2995 2996 2997 2998 2999 3000 3002 3003 3004 3005 3006 3007 3008 3009 3010 3011 3012 3013 3014 3015 3016 3017 3018 3019 3019 3020 3022 3022 3023 3023 3025 3026 3027 3028 3029 3030 3031 3032 3033 3035 3037 3038 3039 3039 3040 3042 3044 3046 3048 3049 3050 3051 3052 3053 3053 3053 3053 3053 3053 3053 3052 3052 3051 3050 3050 3049 3048 3047 3046 3046 3045 3044 3043 3042 3041 3040 3039 3038 3037 3037 3036 3036 3035 3034 3034
2994 2995 2997 2998 2999 3000 3001 3002 3003 3004 3005 3006 3008 3009 3010 3011 3012 3013 3014 3015 3016 3016 3017 3018 3018 3019 3020 3021 3022 3022 3023 3024 3025 3026 3027 3028 3030 3031 3032 3033 3034 3036 3037 3037 3038 3039 3041 3043 3045 3047 3048 3050 3051 3051 3051 3051 3052 3052 3051 3051 3051 3050 3050 3049 3048 3047 3046 3045 3044 3043 3042 3041 3040 3039 3039 3038 3037 3037 3036 3036 3035 3034 3033 3032 3032 3031 3030
2996 2997 2998 2999 3000 3001 3002 3004 3005 3006 3007 3009 3010 3011 3012 3012 3013 3014 3014 3015 3016 3017 3018 3019 3019 3020 3021 3022 3022 3023 3023 3024 3026 3027 3028 3029 3030 3031 3032 3033 3035 3036 3037 3037 3038 3040 3042 3044 3046 3047 3048 3049 3050 3050 3051 3051 3051 3050 3050 3050 3049 3048 3048 3047 3045 3044 3043 3041 3040 3039 3037 3036 3035 3035 3034 3034 3033 3033 3033 3032 3032 3031 3031 3030 3029 3029 3028
2998 2999 3000 3001 3002 3003 3004 3006 3007 3009 3010 3011 3012 3012 3013 3014 3014 3014 3015 3016 3017 3017 3018 3019 3020 3021 3022 3022 3023 3023 3024 3025 3026 3027 3028 3029 3031 3032 3033 3034 3035 3036 3037 3038 3039 3042 3043 3045 3047 3048 3048 3049 3049 3050 3050 3050 3050 3049 3049 3048 3047 3046 3045 3044 3042 3041 3040 3038 3037 3035 3034 3033 3032 3032 3031 3031 3030 3030 3030 3030 3029 3028 3028 3027 3027 3026 3025
3000 3001 3002 3003 3004 3005 3007 3008 3009 3010 3011 3012 3013 3013 3014 3015 3015 3015 3016 3017 3018 3018 3019 3020 3021 3022 3023 3023 3023 3024 3025 3026 3027 3028 3029 3030 3032 3033 3034 3035 3035 3036 3037 3039 3041 3043 3044 3046 3047 3047 3048 3048 3048 3048 3048 3048 3048 3047 3047 3046 3045 3044 3043 3042 3041 3039 3038 3036 3035 3033 3032 3031 3030 3030 3029 3029 3028 3028 3028 3027 3027 3026 3025 3025 3024 3024 3023
3003 3004 3004 3005 3006 3007 3008 3009 3010 3011 3011 3012 3013 3014 3014 3015 3015 3016 3017 3018 3019 3020 3020 3021 3022 3023 3024 3024 3025 3025 3026 3027 3028 3029 3030 3031 3032 3033 3034 3035 3036 3037 3038 3040 3042 3043 3045 3046 3046 3046 3046 3047 3047 3047 3046 3046 3046 3045 3045 3044 3043 3042 3041 3040 3039 3038 3036 3035 3034 3032 3031 3030 3029 3028 3028 3027 3027 3026 3026 3025 3025 3024 3024 3023 3023 3022 3021
3006 3006 3007 3007 3008 3009 3009 3010 3012 3012 3013 3013 3014 3014 3015 3016 3016 3017 3018 3019 3019 3020 3021 3022 3023 3023 3024 3025 3026 3027 3027 3028 3029 3030 3031 3032 3033 3034 3035 3036 3037 3038 3039 3041 3042 3044 3045 3045 3045 3045 3045 3045 3045 3045 3045 3045 3044 3044 3044 3043 3042 3041 3040 3039 3038 3036 3035 3034 3033 3032 3030 3029 3028 3027 3027 3026 3025 3025 3024 3024 3023 3023 3023 3022 3022 3021 3020
3008 3008 3009 3009 3010 3011 3011 3012 3013 3014 3015 3015 3014 3015 3016 3017 3018 3018 3019 3020 3021 3021 3023 3024 3024 3024 3025 3026 3027 3027 3028 3029 3030 3031 3032 3033 3034 3035 3035 3036 3038 3039 3040 3042 3043 3044 3044 3044 3044 3044 3044 3044 3044 3044 3044 3043 3043 3043 3042 3042 3041 3040 3038 3038 3036 3035 3034 3033 3032 3031 3030 3029 3028 3027 3026 3025 3024 3024 3023 3022 3022 3022 3022 3021 3020 3019 3018
3010 3010 3010 3011 3012 3013 3014 3014 3015 3016 3016 3016 3017 3017 3018 3019 3019 3019 3020 3021 3021 3022 3023 3024 3024 3025 3026 3026 3027 3028 3028 3029 3030 3031 3032 3033 3034 3035 3036 3037 3039 3040 3041 3042 3042 3043 3043 3043 3043 3043 3043 3043 3043 3042 3042 3042 3042 3041 3041 3040 3039 3038 3037 3036 3035 3034 3033 3032 3032 3031 3030 3029 3028 3027 3026 3025 3024 3023 3023 3022 3022 3021 3021 3020 3019 3018 3017
3012 3012 3013 3013 3014 3015 3016 3016 3017 3017 3018 3018 3019 3019 3020 3020 3021 3021 3022 3022 3022 3022 3023 3024 3025 3026 3027 3027 3028 3029 3029 3030 3031 3031 3032 3033 3034 3035 3037 3038 3039 3040 3041 3041 3042 3042 3042 3042 3042 3042 3042 3042 3041 3041 3041 3041 3040 3040 3039 3039 3038 3037 3037 3036 3035 3034 3033 3033 3032 3031 3030 3030 3029 3028 3027 3026 3025 3024 3024 3023 3022 3022 3021 3020 3019 3018 3017